Skip Page Navigation
NASA JPL Caltech
NASA Logo - Jet Propulsion Laboratory + View the NASA Portal
+ Near-Earth Object (NEO) Program
Search JPL
JPL Home Earth Solar System Stars & Galaxies Technology
JPL Solar System Dynamics
BODIES ORBITS EPHEMERIDES TOOLS PHYSICAL DATA DISCOVERY FAQ SITE MAP
JPL Small-Body Database Browser
Search: [ help ]  
71482 Jennamarie (2000 BO30)
Classification: Main-belt Asteroid          SPK-ID: 2071482
Ephemeris | Orbit Diagram | Orbital Elements | Physical Parameters | Discovery Circumstances | Close-Approach Data ]

[ hide orbit diagram ]
Orbit Diagram
Note: Make sure you have Java enabled on your browser to see the applet. This applet is provided as a 3D orbit visualization tool. The applet was implemented using 2-body methods, and hence should not be used for determining accurate long-term trajectories (over several years or decades) or planetary encounter circumstances. For accurate long-term ephemerides, please instead use our Horizons system.
Orbit Viewer

Additional Notes: the orbits shown in the applet are color coded. The planets are white lines, and the asteroid/comet is a blue line. The bright white line indicates the portion of the orbit that is above the ecliptic plane, and the darker portion is below the ecliptic plane. Likewise for the asteroid/comet orbit, the light blue indicates the portion above the ecliptic plane, and the dark blue the portion below the ecliptic plane.

Orbit Viewer applet originally written and kindly provided by Osamu Ajiki (AstroArts), and further modified by Ron Baalke (JPL).


Orbital Elements at Epoch 2456400.5 (2013-Apr-18.0) TDB
Reference: JPL 1 (heliocentric ecliptic J2000)
 Element Value Uncertainty (1-sigma)   Units 
e .02715044094696879 1.3165e-07  
a 3.194194622124253 8.0783e-08 AU
q 3.107470829663143 4.2589e-07 AU
i 13.61528284440464 1.2315e-05 deg
node 109.5552794917277 4.8389e-05 deg
peri 115.0071727926195 0.00024811 deg
M 2.198332820822143 0.00024 deg
tp 2456387.766979706569
(2013-Apr-05.26697971)
0.0013902 JED
period 2085.165295362716
5.71
7.9102e-05
2.166e-07
d
yr
n .1726481832402537 6.5495e-09 deg/d
Q 3.280918414585363 8.2976e-08 AU
  Orbit Determination Parameters
   # obs. used (total)      300  
   data-arc span      6158 days (16.86 yr)  
   first obs. used      1996-06-09  
   last obs. used      2013-04-19  
   planetary ephem.      DE405  
   SB-pert. ephem.      SB405-CPV-2  
   condition code      0  
   fit RMS      .63449  
   data source      ORB  
   producer      Otto Matic  
   solution date      2013-Apr-29 17:21:00  

Additional Information
 Earth MOID = 2.11762 AU 
 T_jup = 3.151 
[ show covariance matrix ]

Ephemeris | Orbit Diagram | Orbital Elements | Physical Parameters | Discovery Circumstances | Close-Approach Data ]

Physical Parameter Table
Parameter Symbol Value Units Sigma Reference Notes
absolute magnitude H 13.779 mag .43285 1 autocmod 2.5c

71482 Jennamarie           Discovered 2000 Jan. 28 by Spacewatch at Kitt Peak.
Jennifer Marie Mayhew (b. 1981), a Cayuga Indian born in Ontario, now resident in Texas and renowned for her generosity, as a teenager helped disabled children ride horses. Named by her husband of six years, though absent in the military for most of that time, to recognize all families who are separated by war.
NOTE: some special characters may not display properly (any characters within {} are an attempt to place the proper accent above a character)
Reference: 20080321/MPCPages.arcLast Updated: 2008-03-26

[ show close-approach data ]
Ephemeris | Orbit Diagram | Orbital Elements | Physical Parameters | Discovery Circumstances | Close-Approach Data ]
ABOUT SSD CREDITS/AWARDS PRIVACY/COPYRIGHT GLOSSARY LINKS
FirstGov 2013-Jun-19 18:11 UT
(server date/time)  
NASA Home Page
Site Manager:   Donald K. Yeomans
Webmaster  Alan B. Chamberlin